KB1JDX Weather Reports


time (UTC)temp
F
wind
direction
speed
knots
gust
knots
rain 1hr
in
rain 24hr
in
rain mn
in
humidity
%
barometer
mb
20260502200031 55 223 0.0 7.0 0.00 0.04 0.04 64 1009.6
20260502194031 55 188 0.0 7.0 0.00 0.04 0.04 65 1009.8
20260502192033 56 186 0.0 7.0 0.00 0.04 0.04 64 1010.0
20260502191925 56 190 0.9 7.0 0.00 0.04 0.04 64 1010.1
20260502190033 54 182 0.0 7.8 0.01 0.04 0.04 63 1010.5
20260502184031 54 206 0.0 7.8 0.01 0.04 0.04 62 1010.5
20260502182031 54 184 6.1 7.8 0.01 0.04 0.04 52 1010.6
20260502181925 54 187 0.0 7.8 0.01 0.04 0.04 52 1010.6
20260502164032 53 214 0.0 4.3 0.00 0.00 0.00 43 1011.0
20260502162031 53 192 0.0 4.3 0.00 0.00 0.00 47 1011.3
20260502161926 53 191 0.0 4.3 0.00 0.00 0.00 49 1011.2
20260502160105 53 192 0.0 0.0 0.00 0.00 0.00 53 1011.2
20260502152034 53 190 0.0 0.0 0.00 0.00 0.00 64 1011.4
20260502151925 53 190 0.0 0.0 0.00 0.00 0.00 64 1011.3
20260502122032 49 186 0.0 0.0 0.00 0.00 0.00 49 1012.1
20260502121925 49 186 0.0 0.0 0.00 0.00 0.00 49 1012.1
20260502120110 49 186 0.0 0.0 0.00 0.00 0.00 51 1012.6
20260502112031 49 185 0.0 0.0 0.00 0.00 0.00 48 1011.9
20260502111925 49 185 0.0 0.0 0.00 0.00 0.00 47 1011.9
20260502110031 48 184 0.0 0.0 0.00 0.00 0.00 50 1011.8
20260502104031 48 184 0.0 0.0 0.00 0.00 0.00 52 1011.6
20260502102031 48 184 0.0 0.0 0.00 0.00 0.00 52 1011.5
20260502101925 48 184 0.0 0.0 0.00 0.00 0.00 52 1011.6
20260502070031 49 184 0.0 0.0 0.00 0.00 0.00 65 1011.3
20260502064031 49 184 0.0 0.0 0.00 0.00 0.00 65 1011.3
20260502062031 49 184 0.0 0.0 0.00 0.00 0.00 66 1011.5
20260502061925 49 184 0.0 0.0 0.00 0.00 0.00 66 1011.5
20260502060031 50 184 0.0 0.0 0.00 0.00 0.00 66 1011.5
20260502054031 50 191 0.0 0.0 0.00 0.00 0.00 67 1011.8
20260502052031 50 176 0.0 0.0 0.00 0.00 0.00 67 1011.7
20260502051925 50 175 0.0 0.0 0.00 0.00 0.00 67 1011.7
20260502050031 50 190 0.0 0.0 0.00 0.00 0.00 67 1011.9
20260502044031 50 186 0.0 0.0 0.00 0.00 0.00 67 1011.8
20260502042031 50 186 0.0 0.0 0.00 0.00 0.00 67 1011.8
20260502041925 50 186 0.0 0.0 0.00 0.00 0.00 67 1011.8
20260502040031 50 186 0.0 0.0 0.00 0.00 0.00 67 1011.9
20260502034031 51 186 0.0 0.0 0.00 0.00 0.00 67 1011.9
20260502032031 51 184 0.0 0.0 0.00 0.00 0.00 66 1012.0
20260502031925 51 184 0.0 0.0 0.00 0.00 0.00 66 1012.0
20260502030032 51 182 0.0 0.0 0.00 0.00 0.00 65 1012.0
20260502024031 52 182 0.0 0.0 0.00 0.00 0.00 63 1011.6
20260502022031 52 218 0.0 0.0 0.00 0.00 0.00 61 1011.7
20260502021925 52 219 0.0 0.0 0.00 0.00 0.00 61 1011.8
20260502020031 52 246 0.0 0.0 0.00 0.00 0.00 60 1011.8
20260502014031 52 248 0.0 0.0 0.00 0.00 0.00 58 1011.6
20260502012031 52 255 0.0 0.0 0.00 0.00 0.00 59 1011.4
20260502011925 51 257 0.0 0.0 0.00 0.00 0.00 59 1011.4
20260502010030 52 257 0.0 0.0 0.00 0.00 0.00 58 1011.2
20260502002031 55 257 0.0 0.0 0.00 0.00 0.00 51 1010.3
20260502001925 55 257 0.0 0.0 0.00 0.00 0.00 51 1010.3
20260502000031 57 257 0.0 0.0 0.00 0.00 0.00 48 1010.0
20260501234031 59 257 0.0 0.0 0.00 0.00 0.00 46 1010.0
20260501232032 60 257 0.0 0.0 0.00 0.00 0.00 41 1009.6
20260501231925 60 257 0.0 0.0 0.00 0.00 0.00 41 1009.6
20260501230031 61 257 0.0 7.8 0.00 0.00 0.00 37 1009.4
20260501224031 61 292 0.0 7.8 0.00 0.00 0.00 37 1009.2
20260501222033 62 286 0.0 7.8 0.00 0.00 0.00 36 1009.2
20260501221925 62 286 0.0 7.8 0.00 0.00 0.00 35 1009.1
20260501214034 62 301 0.0 6.1 0.00 0.00 0.00 35 1008.9
20260501212032 63 57 5.2 6.1 0.00 0.00 0.00 35 1009.0
20260501211925 63 300 0.9 6.1 0.00 0.00 0.00 34 1009.0
20260501210032 64 288 0.0 7.8 0.00 0.00 0.00 35 1008.7
20260501204032 65 254 0.0 7.8 0.00 0.00 0.00 33 1008.7
20260501201925 64 269 0.0 7.8 0.00 0.00 0.00 34 1008.5